Temp
75 75 75 74 75 73 74 74 75 74 75 75 75 74 74 74 74 73 73 73 72 73 73 72 72 73 73 72 71 70 69 67 66 68 71 73 72 73 75 74 75 72 71
76 75 75 75 75 76 74 73 73 76 74 75 75 74 74 75 74 73 73 76 73 72 72 71 72 76 72 72 71 71 70 70 68 67 69 69 72 73 73 72 73 73 71
76 75 75 74 75 75 77 77 73 73 74 74 74 73 73 73 73 73 73 73 73 73 72 72 72 72 71 70 70 69 70 71 69 68 68 69 70 71 71 71 71 72 71
76 75 74 74 75 76 76 75 76 73 72 72 73 73 73 73 74 74 73 72 72 74 73 73 73 73 73 72 72 71 71 69 69 68 68 68 69 70 70 69 68 69 68
76 75 75 75 76 76 75 75 75 75 76 76 73 72 73 74 77 73 74 73 73 73 73 74 75 74 73 72 73 71 70 69 67 67 67 66 67 67 67 68 67 68 67
76 76 76 75 75 75 75 74 75 75 75 75 74 75 73 77 73 72 74 73 72 71 70 71 73 73 72 70 69 69 70 69 69 68 68 67 68 67 67 67 66 67 66
76 76 76 75 75 75 76 75 74 75 75 75 75 74 74 73 67 67 69 69 68 68 67 67 69 75 69 69 69 69 69 67 68 71 69 68 67 68 68 67 66 65 65
76 76 76 76 75 76 75 75 76 76 75 73 74 74 74 73 64 64 67 66 65 65 65 64 64 64 65 64 64 63 64 65 65 67 67 69 69 71 70 70 70 66 66
76 76 76 77 76 75 75 75 77 74 74 74 74 73 66 64 62 63 64 64 64 62 63 62 61 60 61 62 59 57 57 59 65 64 63 62 62 63 63 66 67 66 65
76 76 76 77 76 75 75 74 75 75 74 72 69 67 65 64 59 59 61 62 60 60 58 58 60 59 58 58 57 55 54 55 57 58 58 59 61 61 63 64 66 67 65
73 74 74 74 74 74 72 71 70 68 67 66 66 66 66 64 60 58 60 60 59 56 54 54 56 58 57 55 55 54 55 56 58 57 56 57 57 59 61 64 66 66 65
71 70 69 69 69 69 68 67 66 66 66 65 64 63 63 61 58 58 57 58 59 54 53 54 55 56 54 54 55 56 55 56 58 58 58 58 57 58 59 61 65 68 69
67 66 65 65 66 66 66 66 66 66 65 64 64 62 58 58 58 57 57 57 57 54 54 55 56 53 53 55 57 57 57 58 57 56 56 58 58 61 63 63 63 63 62
66 65 64 64 63 62 62 63 63 62 62 62 62 59 58 58 57 56 56 56 55 54 55 55 57 56 56 58 58 60 59 59 57 57 57 58 60 61 61 62 61 60 58
65 64 63 63 61 56 53 54 57 57 59 60 60 59 57 57 57 53 52 53 52 51 49 56 57 57 57 58 58 59 60 58 57 57 57 58 60 60 60 61 60 59 57
64 63 63 63 59 54 54 52 51 49 49 52 53 61 60 57 51 49 48 47 47 46 53 56 55 56 56 56 56 56 58 58 59 58 59 58 57 57 57 58 58 57 55
65 64 62 60 56 54 54 55 53 52 50 49 50 51 51 50 48 48 47 45 46 50 52 55 55 55 55 56 56 56 56 57 57 58 57 57 56 56 56 56 56 56 54
65 58 61 58 57 56 55 54 54 55 54 54 51 52 49 48 48 46 45 47 56 53 53 53 55 55 55 55 55 55 56 56 56 56 56 56 56 55 55 55 55 55 54
62 61 61 61 59 58 55 54 54 53 53 53 52 51 50 46 45 45 45 54 56 55 54 54 53 53 55 55 55 55 55 55 56 56 56 56 56 56 55 55 55 52 54
62 62 61 61 60 58 57 56 53 53 52 53 53 54 54 54 53 51 50 53 55 56 55 55 53 53 53 56 55 55 56 56 56 57 57 57 57 56 56 56 56 56 55
63 62 64 63 62 61 60 58 57 56 55 55 57 58 52 57 56 56 56 56 59 57 57 57 55 54 53 54 57 55 53 54 54 54 52 52 52 51 52 52 51 51 51
64 63 63 63 62 62 61 61 59 59 59 59 60 58 49 58 58 58 57 58 60 60 59 58 57 57 55 54 54 54 54 54 54 53 53 53 52 52 52 51 51 50 50
64 64 63 63 63 62 62 63 62 62 62 63 63 61 57 60 61 58 59 59 59 59 59 59 59 58 57 57 56 56 56 56 56 55 55 54 53 53 53 52 52 51 51
65 64 64 66 66 66 66 65 65 61 65 64 63 62 61 60 60 60 60 60 59 60 59 59 60 60 59 59 58 58 57 58 58 58 57 56 55 53 54 54 53 54 53
66 65 65 65 67 65 66 66 65 65 65 64 63 62 62 60 60 60 60 59 60 59 60 59 59 61 62 61 60 61 55 49 56 52 58 58 58 57 56 55 55 55 55
65 65 64 68 65 63 65 65 64 63 64 65 64 64 62 62 64 62 60 60 60 60 61 60 60 62 62 62 63 55 43 39 51 43 58 58 57 56 57 58 57 59 59
MSLP
1011.41 1011.91 1012.46 1013.06 1013.59 1013.98 1014.34 1014.55 1014.77 1014.93 1015.04 1015.12 1015.15 1015.26 1015.42 1015.62 1015.96 1016.33 1016.56 1016.75 1016.96 1016.98 1016.96 1017.02 1017.00 1017.02 1017.01 1017.05 1017.34 1017.67 1017.93 1018.06 1018.06 1017.43 1016.93 1016.38 1016.18 1015.90 1015.23 1015.30 1015.66 1015.95 1016.17
1010.69 1011.33 1011.76 1012.30 1012.91 1013.35 1013.71 1013.88 1014.21 1014.50 1014.69 1014.77 1014.75 1014.89 1015.00 1015.17 1015.43 1015.69 1015.97 1016.06 1016.26 1016.45 1016.43 1016.56 1016.56 1016.54 1016.63 1016.67 1016.91 1017.16 1017.21 1017.22 1017.44 1017.32 1016.81 1016.55 1016.20 1015.96 1015.65 1015.65 1015.50 1015.76 1015.91
1010.37 1010.92 1011.42 1011.81 1012.25 1012.65 1013.00 1013.39 1013.71 1013.94 1014.09 1014.35 1014.49 1014.58 1014.75 1014.89 1015.07 1015.22 1015.37 1015.46 1015.57 1015.65 1015.76 1015.91 1015.93 1016.08 1016.24 1016.26 1016.32 1016.57 1016.45 1016.43 1016.78 1016.89 1016.72 1016.24 1015.92 1015.75 1015.63 1015.52 1015.33 1015.28 1015.41
1009.91 1010.48 1010.85 1011.14 1011.50 1011.93 1012.43 1012.85 1013.15 1013.43 1013.73 1013.89 1014.02 1014.19 1014.37 1014.57 1014.66 1014.75 1014.91 1015.05 1015.10 1015.06 1014.99 1015.02 1015.15 1015.31 1015.39 1015.51 1015.62 1015.65 1015.79 1015.99 1016.15 1016.22 1016.17 1015.99 1015.85 1015.36 1015.43 1015.49 1015.46 1015.38 1015.47
1009.36 1009.92 1010.14 1010.41 1010.82 1011.31 1011.75 1012.11 1012.51 1012.85 1013.01 1013.28 1013.41 1013.55 1013.70 1013.93 1014.08 1014.22 1014.30 1014.46 1014.58 1014.57 1014.53 1014.54 1014.49 1014.30 1014.41 1014.50 1014.83 1014.95 1015.18 1015.37 1015.56 1015.76 1015.78 1015.64 1015.38 1015.25 1015.27 1014.96 1015.16 1015.21 1015.30
1008.66 1009.02 1009.46 1009.95 1010.30 1010.66 1011.10 1011.55 1011.93 1012.15 1012.38 1012.65 1012.74 1012.92 1013.08 1013.19 1013.37 1013.45 1013.59 1013.82 1014.00 1014.27 1014.39 1014.32 1014.07 1014.01 1014.00 1014.09 1014.17 1014.24 1014.43 1014.67 1014.89 1015.05 1015.01 1015.07 1014.68 1014.58 1014.45 1014.58 1014.83 1015.19 1015.26
1007.81 1008.34 1008.81 1009.21 1009.63 1010.01 1010.39 1010.95 1011.29 1011.46 1011.75 1011.93 1012.04 1012.26 1012.37 1012.59 1012.79 1013.07 1013.29 1013.52 1013.93 1014.07 1014.28 1014.47 1014.32 1014.11 1014.12 1014.18 1014.10 1014.05 1014.05 1014.02 1013.99 1014.07 1014.25 1014.19 1014.09 1013.96 1014.06 1014.07 1014.20 1014.42 1014.36
1007.11 1007.64 1008.09 1008.50 1008.94 1009.35 1009.77 1010.09 1010.39 1010.77 1011.14 1011.37 1011.48 1011.71 1012.00 1012.45 1012.97 1013.73 1014.07 1014.12 1014.05 1014.21 1014.17 1014.32 1014.39 1014.47 1014.23 1014.01 1013.89 1013.79 1013.69 1013.57 1013.43 1013.48 1013.52 1013.43 1013.49 1013.50 1013.62 1013.60 1013.58 1013.70 1013.93
1006.55 1007.01 1007.43 1007.86 1008.27 1008.68 1008.99 1009.24 1009.55 1010.07 1010.41 1010.71 1010.88 1011.41 1012.75 1014.20 1014.55 1015.47 1014.56 1014.61 1014.46 1014.27 1014.21 1014.32 1014.48 1014.64 1014.31 1013.98 1013.90 1013.89 1013.66 1013.43 1013.01 1012.89 1013.00 1013.04 1013.07 1013.06 1013.05 1013.20 1013.16 1013.26 1013.45
1005.82 1006.21 1006.75 1007.18 1007.60 1008.04 1008.37 1008.69 1008.92 1009.34 1009.79 1010.27 1010.89 1010.94 1011.67 1011.50 1012.29 1012.22 1014.32 1014.04 1014.34 1014.31 1013.97 1014.17 1014.24 1014.19 1014.10 1014.04 1013.96 1013.98 1013.74 1013.39 1013.15 1012.93 1012.90 1012.81 1012.68 1012.63 1012.47 1012.61 1012.41 1012.45 1012.44
1005.23 1005.82 1006.37 1006.79 1007.17 1007.54 1008.15 1008.57 1008.98 1009.40 1010.25 1010.53 1010.84 1011.29 1011.77 1011.83 1012.59 1012.54 1013.23 1013.85 1014.39 1014.25 1014.15 1014.19 1014.06 1013.88 1013.75 1013.62 1013.59 1013.64 1013.32 1012.93 1012.80 1012.72 1012.62 1012.52 1012.33 1012.14 1011.82 1011.54 1011.60 1011.64 1011.43
1005.27 1005.79 1006.41 1006.83 1007.28 1007.80 1008.39 1009.17 1009.50 1009.77 1010.40 1010.90 1011.33 1011.91 1012.16 1012.41 1012.50 1013.27 1013.62 1014.06 1014.52 1014.44 1014.36 1014.17 1013.85 1013.60 1013.49 1013.24 1013.10 1012.84 1012.70 1012.68 1012.43 1012.23 1012.17 1011.97 1011.79 1011.51 1011.12 1010.88 1010.56 1010.31 1010.19
1005.57 1006.21 1006.72 1007.24 1007.74 1008.16 1008.72 1009.50 1010.21 1010.57 1010.83 1011.25 1011.42 1012.66 1013.21 1013.40 1013.54 1013.93 1014.66 1014.59 1014.59 1014.39 1014.43 1013.92 1013.57 1013.25 1012.98 1012.73 1012.47 1012.30 1012.19 1012.15 1012.04 1011.89 1011.67 1011.38 1011.10 1010.74 1010.53 1010.37 1010.14 1010.10 1010.37
1006.30 1006.73 1007.27 1007.75 1008.25 1008.77 1009.21 1009.50 1010.01 1010.85 1011.40 1011.65 1011.89 1012.49 1013.45 1014.41 1014.67 1014.43 1014.76 1014.58 1014.26 1014.30 1014.22 1013.60 1013.29 1012.98 1012.70 1012.52 1012.20 1011.87 1011.73 1011.58 1011.50 1011.34 1011.21 1010.99 1010.59 1010.43 1010.30 1010.31 1010.24 1010.32 1011.01
1007.28 1007.18 1007.37 1007.78 1008.80 1009.50 1010.06 1010.59 1010.49 1010.96 1011.16 1011.59 1012.03 1012.47 1013.10 1014.00 1014.65 1014.17 1014.68 1014.29 1014.63 1014.32 1014.10 1013.69 1013.49 1013.00 1012.74 1012.46 1012.25 1011.87 1011.45 1011.13 1010.96 1010.92 1010.85 1010.71 1010.22 1010.28 1010.26 1010.46 1010.55 1010.85 1011.39
1007.87 1007.87 1008.03 1008.31 1008.93 1009.61 1010.11 1010.79 1011.10 1011.38 1011.56 1011.36 1011.62 1011.98 1012.63 1012.84 1013.36 1014.00 1014.31 1014.62 1014.41 1014.16 1014.03 1014.12 1013.71 1013.18 1012.94 1012.67 1012.48 1011.98 1011.51 1011.12 1010.66 1010.69 1010.67 1010.58 1010.49 1010.58 1010.75 1011.01 1011.03 1011.40 1012.08
1007.46 1008.14 1008.50 1008.71 1008.84 1009.79 1010.25 1010.66 1011.51 1012.02 1012.19 1012.27 1012.19 1012.28 1012.62 1012.76 1013.21 1013.60 1014.14 1013.74 1014.25 1013.97 1013.88 1013.84 1013.64 1013.22 1012.95 1012.74 1012.43 1012.13 1011.72 1011.40 1011.02 1010.86 1010.89 1010.91 1010.96 1011.23 1011.50 1011.78 1012.02 1012.27 1012.82
1006.83 1008.11 1008.75 1008.60 1008.92 1009.50 1009.96 1010.35 1010.82 1011.44 1012.11 1012.38 1012.32 1012.26 1012.55 1012.84 1013.09 1013.37 1013.70 1014.03 1013.87 1013.55 1013.62 1013.74 1013.54 1013.31 1012.88 1012.65 1012.49 1012.22 1011.88 1011.63 1011.58 1011.49 1011.48 1011.47 1011.73 1011.84 1012.21 1012.49 1012.68 1013.03 1013.45
1007.25 1008.13 1008.33 1008.58 1008.80 1009.30 1009.98 1010.35 1010.67 1011.12 1011.68 1012.02 1012.38 1012.31 1012.19 1012.49 1013.03 1013.19 1013.61 1013.40 1013.27 1013.45 1013.42 1013.27 1013.58 1013.32 1012.87 1012.77 1012.54 1012.22 1011.99 1011.88 1011.90 1011.88 1011.97 1011.89 1012.12 1012.28 1012.71 1012.98 1013.27 1013.49 1013.92
1006.63 1007.30 1008.03 1008.38 1008.70 1009.24 1009.83 1010.22 1010.50 1010.78 1011.28 1011.59 1011.85 1011.75 1012.04 1012.60 1012.99 1012.99 1013.08 1012.92 1012.90 1012.98 1012.79 1012.99 1013.13 1012.93 1012.98 1012.82 1012.56 1012.33 1012.24 1012.18 1012.15 1012.07 1012.17 1012.16 1012.42 1012.68 1013.18 1013.50 1013.83 1014.17 1014.60
1005.98 1007.24 1007.57 1007.92 1008.15 1008.38 1008.91 1009.32 1009.66 1010.06 1010.47 1010.94 1011.05 1011.04 1011.15 1011.51 1011.72 1012.03 1012.12 1012.02 1012.20 1012.47 1012.44 1012.41 1012.55 1012.71 1012.82 1012.84 1012.58 1012.44 1012.41 1012.44 1012.36 1012.24 1012.51 1012.72 1012.91 1013.34 1013.50 1013.82 1014.23 1014.63 1015.09
1005.64 1006.30 1006.88 1007.32 1007.67 1007.92 1008.27 1008.59 1008.99 1009.31 1009.52 1010.00 1010.19 1010.40 1010.61 1011.05 1011.23 1011.34 1011.37 1011.23 1011.39 1011.51 1011.64 1011.86 1012.17 1012.35 1012.41 1012.51 1012.47 1012.55 1012.47 1012.43 1012.47 1012.48 1012.60 1012.81 1013.17 1013.44 1013.76 1014.17 1014.48 1014.89 1015.42
1004.91 1005.46 1006.04 1006.64 1007.03 1007.14 1007.50 1008.25 1008.59 1008.47 1008.72 1009.10 1009.36 1009.58 1010.06 1010.21 1010.27 1010.55 1010.59 1010.59 1010.67 1010.95 1011.21 1011.51 1011.74 1011.97 1012.00 1012.07 1012.15 1012.17 1012.22 1012.04 1012.13 1012.24 1012.50 1012.80 1013.22 1013.52 1013.83 1014.27 1014.54 1014.74 1015.21
1004.10 1005.05 1005.53 1005.97 1006.25 1006.35 1006.74 1007.29 1007.81 1007.70 1008.01 1008.36 1008.58 1008.66 1008.88 1009.03 1009.25 1009.48 1009.77 1009.80 1010.09 1010.33 1010.60 1010.88 1011.12 1011.35 1011.57 1011.55 1011.57 1011.62 1011.65 1011.58 1011.65 1011.97 1012.25 1012.57 1013.01 1013.44 1013.83 1014.19 1014.45 1014.55 1014.81
1003.43 1003.63 1004.36 1005.29 1005.77 1006.07 1006.07 1006.21 1006.67 1006.92 1007.23 1007.38 1007.51 1007.74 1007.99 1008.25 1008.63 1008.87 1008.92 1009.11 1009.29 1009.68 1009.91 1010.18 1010.26 1010.35 1010.61 1010.87 1010.96 1010.96 1011.02 1011.27 1011.57 1011.53 1011.83 1012.28 1012.62 1013.05 1013.44 1013.71 1013.82 1014.00 1014.30
1002.70 1003.02 1003.66 1004.28 1004.95 1005.16 1005.39 1005.44 1005.82 1006.15 1006.47 1006.49 1006.58 1006.75 1007.09 1007.50 1007.74 1007.96 1008.14 1008.50 1008.87 1009.09 1009.19 1009.39 1009.50 1009.50 1009.73 1010.08 1010.20 1010.26 1010.52 1010.89 1011.16 1011.35 1011.51 1011.74 1012.12 1012.44 1012.63 1012.87 1013.03 1013.19 1013.29
Wind_Speed
14 13 12 11 10 7 8 8 8 6 7 7 8 7 7 7 7 6 6 7 7 6 5 6 6 5 4 3 2 3 4 3 4 4 3 3 4 6 6 3 4 4 4
13 12 13 12 11 11 9 7 7 9 6 8 7 7 7 7 7 7 7 7 8 8 7 6 7 4 6 5 4 5 4 4 4 4 2 2 5 5 4 4 5 5 6
13 13 12 12 12 13 13 11 7 7 7 7 6 7 7 7 7 6 7 7 7 7 7 7 7 6 6 5 5 5 4 3 4 4 4 3 4 3 4 4 4 6 4
14 13 13 13 14 13 11 10 10 7 7 7 7 8 7 7 8 7 7 7 7 8 8 8 7 8 8 7 6 6 5 4 4 4 4 4 4 4 3 4 4 3 2
14 13 15 13 12 12 11 10 10 9 11 10 7 7 7 7 7 7 7 7 8 8 7 8 9 10 12 10 5 6 6 5 4 4 4 3 3 3 4 2 3 2 2
15 16 14 12 12 12 11 10 10 11 10 9 11 10 9 8 10 14 11 8 6 5 5 6 6 7 7 8 7 9 6 5 5 4 5 6 8 4 3 3 3 3 3
16 14 13 13 13 12 12 10 10 12 9 10 11 9 11 9 12 10 9 3 4 3 2 4 5 3 4 4 6 7 8 9 10 5 6 6 5 4 3 4 5 4 5
15 14 14 13 13 12 12 13 12 10 11 10 11 10 9 5 2 1 5 3 2 1 1 3 4 6 5 5 5 5 6 6 6 5 6 5 4 3 3 3 5 4 1
14 14 13 13 13 12 13 13 12 9 10 10 8 7 8 10 13 14 8 4 2 1 2 3 4 5 6 2 3 4 5 5 4 7 4 5 6 8 6 2 4 4 3
14 14 12 13 13 13 12 11 9 8 9 4 6 6 14 14 19 22 11 2 2 3 3 4 7 7 6 6 4 4 5 5 4 5 5 6 6 7 9 7 4 8 3
8 8 9 9 10 9 6 3 4 4 5 3 5 3 4 8 6 7 6 1 2 2 3 4 4 9 10 8 7 5 7 5 7 5 5 5 5 6 6 6 9 8 4
7 7 6 6 5 5 7 4 5 6 8 6 6 4 2 4 8 5 4 2 2 1 4 4 5 9 10 12 8 11 12 10 5 4 4 6 5 6 6 6 8 8 6
8 8 7 7 6 6 8 7 5 4 5 5 6 4 4 3 3 4 3 4 5 2 4 6 10 9 10 8 9 9 7 4 4 4 5 6 4 5 4 3 2 8 7
7 8 6 7 7 6 5 4 6 5 4 4 5 7 6 3 1 3 1 1 5 4 6 5 6 7 7 6 5 4 3 3 4 4 4 3 4 2 3 2 2 6 8
2 5 8 8 7 6 5 3 4 3 4 7 7 8 7 5 3 2 2 3 3 3 5 3 3 3 3 4 5 5 4 3 3 3 3 4 2 2 2 3 4 3 5
4 3 4 6 6 5 6 5 10 9 7 8 14 12 6 12 14 11 7 6 6 5 1 2 2 3 3 3 4 4 3 5 2 2 0 2 4 4 4 3 4 6 8
7 5 3 5 6 6 5 8 7 3 5 3 6 8 7 4 9 11 4 1 10 1 1 2 2 2 2 3 3 3 3 4 4 3 2 3 4 4 4 4 5 6 6
6 7 6 5 6 6 6 5 6 7 5 3 2 4 7 10 8 4 3 5 2 2 1 1 2 3 2 2 3 2 3 3 3 3 3 4 4 4 4 4 5 7 7
8 7 6 5 6 6 4 4 4 5 4 4 2 1 6 4 5 5 6 3 1 2 3 1 2 2 2 1 1 1 2 2 2 3 3 4 4 5 5 5 6 8 8
8 10 8 6 6 6 5 5 5 5 5 5 4 5 2 5 5 5 5 4 4 4 3 3 3 1 2 2 0 1 2 2 2 3 3 4 4 4 5 6 6 6 5
8 9 13 8 9 9 9 8 7 6 6 6 7 6 9 5 5 5 5 5 5 5 5 4 4 3 3 3 2 2 2 2 2 4 4 4 4 5 4 5 5 5 5
12 10 10 9 8 8 8 7 7 7 7 7 7 5 12 6 5 5 5 5 7 6 5 5 4 4 4 4 4 3 3 3 2 3 4 5 5 5 4 4 5 4 4
10 11 10 7 8 9 7 7 8 8 8 9 8 6 5 7 7 6 5 5 5 5 5 5 5 4 4 5 4 4 4 4 5 5 5 5 5 4 4 3 4 4 5
11 10 9 8 7 9 9 9 8 9 9 9 9 7 7 7 7 6 6 6 6 6 5 6 6 7 6 6 5 5 5 4 5 5 6 5 5 5 4 3 4 5 4
11 12 9 7 8 9 9 9 8 8 8 7 7 6 6 5 5 6 6 5 6 6 7 6 5 10 12 11 9 9 8 11 7 7 6 7 7 8 6 5 5 5 6
10 10 8 9 8 7 7 8 7 6 6 6 6 7 8 8 8 7 6 6 6 6 7 6 7 10 12 10 11 12 11 11 10 11 6 6 6 5 7 9 9 8 9
Wind_Direction
184 180 179 185 190 184 202 210 214 211 210 213 202 200 201 191 199 201 209 214 213 227 229 226 247 241 263 268 206 188 188 188 222 279 229 274 227 254 277 256 237 234 239
184 181 182 184 188 199 208 208 205 218 208 217 213 205 204 203 208 207 215 215 214 219 229 231 245 241 237 235 232 229 222 198 189 254 265 267 241 236 250 222 219 206 207
184 185 187 188 193 205 213 215 212 214 221 208 202 208 212 211 211 215 210 216 220 223 222 220 231 223 240 237 230 227 219 220 197 208 256 238 246 246 247 252 228 229 207
183 186 190 192 197 206 210 214 221 212 220 222 216 210 207 212 217 217 217 220 226 234 233 229 228 223 231 228 233 227 225 227 219 221 241 243 232 241 223 230 258 236 194
183 188 199 197 197 200 205 208 212 220 229 232 222 219 217 214 220 216 222 224 228 239 240 241 240 231 220 213 213 224 209 220 217 222 245 218 235 225 214 221 227 222 150
187 197 196 194 194 200 204 204 210 217 219 220 225 227 226 230 224 219 214 222 213 224 263 273 264 257 248 252 244 236 233 224 231 205 243 235 249 227 208 217 179 198 216
191 196 195 193 197 200 203 202 209 217 217 222 227 220 226 220 214 213 210 204 212 206 275 311 312 325 345 299 275 254 239 222 215 217 232 232 241 219 218 232 222 205 215
193 196 196 192 198 200 199 206 212 212 215 217 226 223 226 231 151 348 275 239 202 250 52 341 331 314 316 317 301 286 270 261 245 220 219 233 232 247 263 259 242 215 298
195 198 196 194 197 196 203 208 211 206 214 215 219 219 79 64 45 340 311 314 306 9 27 6 342 311 316 339 23 334 315 302 303 294 284 281 264 258 232 229 246 176 194
196 197 192 195 197 199 203 206 206 210 216 187 145 157 152 151 178 157 230 245 273 303 339 326 314 310 310 297 307 286 284 268 285 295 299 297 285 272 250 231 222 244 162
177 176 184 188 193 193 178 137 134 114 98 104 114 99 143 159 156 113 183 189 258 306 320 306 288 284 288 286 251 236 240 243 267 255 257 258 251 256 256 229 226 232 187
126 125 126 126 121 125 120 104 104 114 112 110 115 123 92 113 122 151 160 160 257 278 286 282 283 286 290 285 275 257 252 258 261 257 257 255 237 241 247 234 246 222 224
120 115 110 102 103 115 127 123 105 91 117 139 134 82 46 52 86 148 193 276 288 268 273 268 291 292 290 284 270 269 252 225 237 239 248 253 240 248 259 212 140 103 72
120 116 112 112 102 82 66 89 116 117 121 126 116 112 114 75 166 149 249 349 357 337 315 314 298 290 286 290 312 308 239 228 233 241 247 259 262 241 205 161 159 99 91
127 141 129 124 115 105 77 75 108 81 149 133 127 129 124 134 214 94 190 30 298 305 325 324 315 325 343 352 333 319 322 269 235 235 250 260 274 124 82 111 112 84 100
153 162 152 130 132 126 127 93 39 52 33 136 153 150 174 158 157 182 191 241 285 298 39 302 291 337 334 329 324 322 327 328 320 198 319 73 74 72 74 66 73 106 114
154 177 175 169 129 146 139 138 136 32 78 125 112 102 80 145 155 165 222 305 266 258 103 330 309 314 314 311 327 332 332 345 354 57 71 79 89 76 72 77 81 91 93
139 197 191 170 153 157 164 158 147 155 162 197 253 191 174 153 167 165 249 286 237 65 139 251 308 308 319 333 337 354 350 10 24 39 70 78 69 89 88 81 92 103 102
165 180 181 167 160 158 154 151 155 152 170 175 201 244 231 191 176 201 227 234 173 234 225 213 256 275 334 314 328 30 59 47 59 76 76 87 92 100 99 99 95 99 106
161 175 180 177 165 163 172 174 171 168 173 186 197 216 163 143 186 198 209 200 202 226 209 204 229 268 277 263 267 60 85 90 87 89 93 92 89 95 101 100 108 114 100
185 193 190 188 185 183 183 188 181 173 176 190 211 210 192 183 205 201 198 190 194 213 208 193 194 209 226 244 224 160 133 108 100 90 92 88 99 109 102 97 105 107 113
183 187 190 198 193 185 189 186 181 182 184 197 215 217 197 214 215 221 204 188 196 205 197 179 182 195 202 198 191 179 163 150 153 134 124 118 118 118 117 126 122 120 125
186 185 192 195 199 191 175 196 198 189 194 206 211 208 178 214 220 197 212 194 189 205 196 185 181 193 204 200 197 197 191 205 186 162 145 137 139 142 137 143 153 142 156
181 197 194 203 198 195 193 194 207 197 203 208 206 207 205 206 197 193 203 199 189 197 189 189 191 190 202 214 210 208 222 215 167 171 158 155 163 161 163 168 179 192 183
194 180 180 200 203 205 198 196 203 203 205 195 186 186 199 195 196 203 203 196 189 189 202 188 189 200 200 202 208 213 213 208 205 183 172 175 182 189 196 198 195 197 208
178 178 191 209 199 184 192 192 193 190 200 203 186 190 192 197 207 207 196 190 196 203 202 198 200 200 194 200 215 219 209 211 203 205 191 176 179 201 199 205 217 218 213